Location: Trebic
(49.2170°N, 15.8830°E)
Time: 22:03:35
(UTC+02:00)

ISS - Pass Details

Date: 31 March 2019
Orbit: 408 x 410 km, 51.6° (Epoch: 22 April)

Event Time Altitude Azimuth Distance (km) Brightness Sun altitude
Rises 21:00:41 0° 286° (WNW) 2,339 1.7 -15.6°
Reaches altitude 10° 21:02:47 10° 289° (WNW) 1,476 0.3 -15.9°
Maximum altitude 21:06:05 66° 13° (NNE) 450 -3.6 -16.4°
Enters shadow 21:07:04 40° 80° (E) 620 -3.3 -16.6°
